Alyeska Resort
Hourly Weather - Base Weather Site
ALY_BASE_HR 8/21/2017
CLICK TO VIEW GRAPH!!

        DATE  TIME   Air  BATT   H2o   H2o   Rel
                    Temp  Volt  Inch Since  Hum%
                      F   AVG   1HR  0600   AVG

   8/21/2017 13:00    53 13.65  0.03  0.12    95
   8/21/2017 12:00    53 13.65  0.03  0.09    92
   8/21/2017 11:00    53 13.67  0.00  0.06    91
   8/21/2017 10:00    52 13.69  0.00  0.06    93
   8/21/2017 09:00    51 13.71  0.00  0.06    95
   8/21/2017 08:00    49 13.73  0.02  0.06    96
   8/21/2017 07:00    49 13.73  0.04  0.04    96
   8/21/2017 06:00    49 13.73  0.07  0.83    96
   8/21/2017 05:00    49 13.73  0.04  0.76    96
   8/21/2017 04:00    49 13.73  0.03  0.72    96
   8/21/2017 03:00    49 13.72  0.03  0.69    96
   8/21/2017 02:00    49 13.72  0.05  0.66    96
   8/21/2017 01:00    50 13.71  0.04  0.61    95
   8/20/2017 24:00    50 13.71  0.07  0.57    95
   8/20/2017 23:00    50 13.70  0.08  0.50    94
   8/20/2017 22:00    51 13.69  0.02  0.42    94
   8/20/2017 21:00    52 13.67  0.00  0.40    94
   8/20/2017 20:00    52 13.67  0.01  0.40    93
   8/20/2017 19:00    53 13.68  0.01  0.39    88
   8/20/2017 18:00    54 13.68  0.05  0.38    80
   8/20/2017 17:00    53 13.67  0.04  0.33    84
   8/20/2017 16:00    53 13.66  0.07  0.29    87
   8/20/2017 15:00    54 13.66  0.07  0.22    87
   8/20/2017 14:00    54 13.66  0.04  0.15    83


CLICK TO VIEW GRAPH!!